User: anonymous   Login
Location: ????
(30.2663°N, 31.2484°E)
Time: 05:13:31
(UTC+00:00)
Language:

deb Kosmos-1275 - Orbit

View from above orbital plane
View from above orbital plane
View from above satellite
View from above satellite

Ground track
Ground track

The orbit data is extracted from the following two-line orbital elements,

1 12712U 81053BG  24106.56543034  .00002276  00000-0  19206-2 0  9990
2 12712  82.9883 193.3899 0073718 194.8877 230.9796 13.86116586141697
Epoch (UTC): 15 April 2024 13:34:13
Eccentricity: 0.0073718
inclination: 82.9883°
perigee height: 888 km
apogee height: 996 km
right ascension of ascending node: 193.3899°
argument of perigee: 194.8877°
revolutions per day: 13.86116586
mean anomaly at epoch: 230.9796°
orbit number at epoch: 14169

The dashed part of the orbit path shows where the satellite is in the earth's shadow,  

DLR